Location: Unspecified
(0.0000°N, 0.0000°E)
Time: 05:25:01
(UTC+00:00)

Envisat - Pass Details

Date: 16 June 2023
Orbit: 763 x 764 km, 98.2° (Epoch: 02 October)

Event Time Altitude Azimuth Distance (km) Brightness Sun altitude
Rises 04:31:26 0° 337° (NNW) 3,213 6.3 -20.4°
Reaches altitude 10° 04:34:55 10° 312° (NW) 2,292 5.2 -19.6°
Enters shadow 04:35:16 11° 308° (NW) 2,229 5.1 -19.5°
